Probability
0 0 0 0 0 0 0 0 0 0 0 0 0 2 7 11 9 5 11 42 72 66 41 23 9 3 2 2 2 1 1 0 1 3 4 3 1 1 1 0 0 0 0 0 0 0 0 0 0
0 0 0 0 0 0 0 0 0 0 0 0 0 3 7 6 4 3 17 51 74 60 33 15 5 2 2 3 2 2 2 1 0 2 5 4 2 2 2 1 1 1 1 1 1 1 1 0 0
0 0 0 0 0 0 0 0 0 0 0 0 1 3 4 2 0 3 19 50 66 52 24 8 2 1 2 2 2 3 3 2 1 2 3 4 5 5 4 3 5 6 6 6 5 5 4 1 0
0 0 0 0 0 0 0 0 0 0 0 0 0 1 1 0 1 3 11 28 41 31 14 4 1 1 1 1 1 3 7 9 7 4 2 5 9 11 8 9 13 17 19 19 18 14 10 5 2
0 0 0 0 0 0 0 0 0 0 0 0 0 0 0 0 1 2 3 8 16 16 7 1 0 0 0 0 1 5 13 19 17 10 6 7 12 16 20 24 29 35 37 35 27 20 12 6 4
0 0 0 0 0 0 0 0 0 0 0 0 0 1 0 0 0 1 1 6 18 22 11 2 0 0 0 2 4 6 13 19 17 12 8 7 12 22 33 40 44 46 42 32 20 11 6 3 2
0 0 0 0 0 0 0 0 0 0 0 0 1 2 2 0 0 0 1 11 30 36 22 7 2 0 1 2 4 4 7 10 9 6 5 7 16 29 36 38 38 35 26 15 6 2 0 0 0
0 0 0 0 0 0 0 0 0 0 0 0 1 3 4 2 0 2 8 21 38 43 32 15 4 1 1 1 1 1 2 3 2 1 2 6 17 24 23 20 18 13 8 4 1 0 0 0 0
0 0 0 0 0 0 0 0 0 0 0 0 3 8 8 3 2 9 23 35 43 43 32 19 9 3 0 0 0 0 0 0 0 0 1 4 8 9 7 5 4 2 1 0 0 0 0 0 0
0 0 0 0 0 0 0 0 0 0 0 1 9 16 13 5 6 19 35 42 43 36 22 14 10 4 0 0 0 0 0 0 1 2 2 2 3 3 2 0 0 0 0 0 0 0 0 0 0
0 0 0 0 0 0 0 0 0 0 0 2 11 19 15 7 10 24 35 36 33 23 11 7 9 10 8 4 0 0 0 2 7 9 6 3 4 6 5 2 0 0 0 0 0 0 0 0 0
0 0 0 0 0 0 0 0 0 0 0 1 8 15 12 5 8 20 28 26 20 13 11 17 27 35 34 22 9 3 3 7 15 16 8 2 2 4 5 3 1 0 0 0 0 0 0 0 0
0 0 0 0 0 0 0 0 0 0 0 1 4 7 6 2 5 15 23 20 14 18 31 47 62 67 59 42 22 8 7 11 16 13 5 0 0 2 2 1 0 0 0 2 2 1 0 0 0
0 0 0 0 0 0 0 0 0 0 0 0 1 2 2 2 5 15 24 25 26 41 65 78 82 76 58 40 23 10 6 8 9 6 2 0 0 1 1 2 1 1 3 5 4 3 4 4 2
0 0 0 0 0 0 0 0 0 0 0 0 0 0 0 1 4 12 29 43 53 69 83 81 74 69 58 41 26 15 11 10 9 5 2 0 0 2 7 14 15 13 13 13 15 20 23 21 19
0 0 0 0 0 0 0 0 0 0 0 0 0 0 2 4 7 15 37 59 68 71 70 60 58 70 75 65 49 38 32 28 21 13 8 3 1 3 18 37 45 42 38 36 40 50 53 49 49
0 0 0 0 0 0 0 0 0 0 0 0 0 1 7 17 24 31 47 60 59 51 42 41 56 76 87 84 76 69 61 50 40 36 31 20 12 15 34 59 72 71 68 64 63 67 71 69 67
0 0 0 0 0 0 0 0 0 0 0 0 1 3 13 27 39 47 56 61 54 40 32 41 64 83 91 92 90 89 82 70 62 63 60 48 39 42 55 70 79 81 81 77 72 71 72 71 69
0 0 0 0 0 0 0 0 0 0 0 1 3 9 17 26 40 57 70 72 65 53 48 58 77 91 97 98 97 96 91 85 80 80 78 70 62 60 63 69 74 76 76 74 72 68 63 58 56
0 0 0 0 0 0 0 0 0 0 0 2 4 11 19 28 46 69 82 82 77 73 74 81 90 96 97 98 98 98 96 91 87 85 78 68 59 51 48 55 61 61 59 59 58 52 43 35 34
0 0 0 0 0 0 0 0 0 0 0 1 4 12 25 42 61 75 78 73 70 74 81 85 87 88 87 88 90 92 91 86 81 75 63 48 37 31 32 36 41 41 36 33 32 28 21 17 16
0 0 0 0 0 0 0 0 1 1 1 2 7 18 35 54 63 61 52 44 43 50 60 65 66 64 62 62 64 66 65 62 57 50 39 27 21 20 21 25 28 27 20 15 13 11 9 7 6
0 0 0 0 0 0 0 0 2 5 5 5 11 23 39 49 46 33 22 16 16 22 30 37 39 35 30 28 29 30 28 28 26 22 17 14 13 14 15 19 22 19 14 11 9 6 4 3 1
0 0 0 0 0 0 0 0 4 11 15 13 12 19 28 29 22 12 5 3 3 5 10 15 16 13 10 8 8 7 6 7 6 5 4 5 7 8 11 13 14 12 9 8 6 3 2 1 0
0 0 0 0 0 0 0 3 11 23 30 26 15 12 13 10 6 3 0 0 0 1 3 4 3 3 2 2 1 1 1 1 1 0 1 2 2 4 7 7 6 5 5 4 2 1 0 0 0
0 0 0 0 0 0 0 5 18 33 43 36 18 7 4 3 1 0 0 0 0 0 1 1 0 0 0 0 0 0 0 0 0 0 0 0 0 1 3 3 3 2 1 1 0 0 0 0 0
0 0 0 0 0 0 1 6 18 35 45 36 16 4 2 2 1 0 0 0 0 0 0 0 0 0 0 0 0 0 0 0 0 0 0 0 0 0 1 1 1 0 0 0 0 0 0 0 0
0 0 0 0 0 0 1 6 19 31 37 28 11 2 1 1 0 0 0 0 0 0 0 0 0 0 0 0 0 0 0 0 0 0 0 0 0 0 0 0 0 0 0 0 0 0 0 0 0
0 0 0 0 0 0 1 5 15 26 28 18 6 1 0 0 0 0 0 0 0 0 0 0 0 0 0 0 0 0 0 0 0 0 0 0 0 0 0 0 0 0 0 0 0 0 0 0 0
0 0 0 0 0 0 1 3 9 19 22 13 3 0 0 0 0 0 0 0 0 0 0 0 0 0 0 0 0 0 0 0 0 0 0 0 0 0 0 0 0 0 0 0 0 0 0 0 0
Wind_Speed
8 12 10 8 8 10 17 17 7 17 13 13 11 11 16 15 11 9 4 8 18 17 15 14 13 13 12 11 10 9 10 11 10 10 10 10 9 8 8 8 7 7 7 9 9 10 10 10 9
11 14 10 7 9 12 13 5 20 15 10 4 3 9 15 14 11 10 7 10 17 16 13 14 14 13 12 11 10 9 10 11 11 12 12 10 9 8 8 7 7 7 7 7 8 8 8 8 7
11 17 8 8 13 12 8 15 15 13 9 6 8 11 12 8 9 8 10 10 13 15 14 13 14 13 12 10 10 9 10 10 11 12 11 11 10 8 8 7 7 7 6 7 7 8 7 7 6
9 9 9 11 16 2 9 10 9 11 7 5 8 11 11 7 7 11 13 13 14 16 15 13 13 13 11 10 10 10 10 10 10 11 11 10 9 8 7 7 8 8 8 8 9 9 9 8 7
10 9 13 15 9 7 9 6 6 9 8 5 10 16 11 12 14 15 14 14 14 16 15 13 12 12 11 10 10 10 10 10 10 10 9 8 7 7 7 8 9 10 10 10 11 11 10 9 7
9 10 12 11 4 6 6 5 7 9 7 5 14 15 12 13 13 14 15 15 16 16 15 13 12 12 11 10 9 9 9 9 9 9 8 7 6 6 7 8 10 11 12 12 11 10 9 7 5
12 13 17 8 7 5 6 5 4 4 5 5 8 16 11 13 12 13 14 14 15 16 15 13 12 11 11 11 10 9 8 8 9 9 8 8 8 8 10 11 11 12 12 12 11 10 9 7 5
12 12 18 4 4 6 6 4 4 4 6 3 6 11 9 11 12 13 14 14 15 13 12 14 13 13 12 11 11 10 9 8 8 8 8 8 9 10 11 10 10 11 11 10 10 9 8 6 4
15 12 14 4 4 4 7 5 5 4 5 4 12 15 15 14 14 13 12 10 11 13 10 12 14 12 12 11 11 10 10 9 9 8 9 8 6 7 8 9 9 9 10 9 9 9 8 6 5
11 12 7 7 5 2 4 3 3 3 3 4 12 17 13 7 11 12 13 9 7 11 11 10 13 13 12 10 9 7 8 8 7 6 8 6 5 4 8 10 9 10 10 10 10 10 8 7 4
12 12 8 4 5 7 2 3 3 2 3 4 9 15 12 8 10 12 12 13 10 12 13 13 10 8 9 8 7 5 4 5 5 5 3 3 4 6 7 5 6 6 8 6 7 7 6 5 2
13 10 5 7 5 8 9 3 3 3 4 5 11 20 17 16 10 12 16 15 14 13 13 13 11 9 7 5 4 3 3 3 4 3 1 2 1 2 4 4 6 6 5 4 3 4 4 1 2
12 12 7 7 7 10 10 9 5 5 2 4 6 13 16 12 7 10 13 14 14 11 13 13 12 9 6 5 3 5 5 4 4 3 2 2 1 1 2 2 2 2 3 3 3 3 1 1 5
12 13 12 7 10 10 8 11 12 8 6 4 4 4 8 8 7 9 9 9 12 12 14 14 13 8 6 4 4 3 4 2 3 4 4 4 3 3 2 0 1 3 2 3 3 5 4 3 4
12 14 12 11 15 13 10 11 14 10 7 7 4 5 8 9 7 8 9 6 8 11 13 13 12 7 6 6 4 4 4 3 5 4 2 3 3 3 3 2 1 2 2 2 2 5 4 4 5
11 12 15 17 18 15 11 11 13 8 8 7 5 6 8 9 9 5 7 10 12 13 11 6 8 7 5 4 3 4 4 4 4 4 3 1 3 2 3 4 2 1 2 3 3 3 3 4 4
15 16 18 19 19 17 14 11 9 4 4 3 5 5 8 7 7 10 14 14 16 17 9 3 2 6 6 5 3 5 3 3 2 2 3 3 1 2 2 3 3 3 2 3 5 4 4 5 6
16 19 19 20 16 13 12 9 6 3 2 5 6 2 11 15 15 14 16 14 14 13 9 5 3 4 5 4 2 3 3 1 0 2 3 4 2 4 3 3 6 6 4 4 5 6 5 5 5
19 20 19 13 6 6 8 8 5 1 1 3 2 7 15 17 13 11 14 15 13 12 8 5 4 3 2 2 1 2 2 1 1 2 5 5 5 6 4 4 5 5 5 5 6 5 6 5 5
20 19 16 13 9 5 7 8 4 4 3 5 7 10 11 14 13 14 17 15 14 11 7 6 6 5 3 3 2 2 2 1 3 4 6 6 5 4 4 5 4 5 5 6 6 6 5 7 7
14 14 16 16 15 10 9 12 9 9 7 6 6 9 12 12 15 16 17 16 16 14 13 11 10 9 8 6 3 3 3 4 5 5 5 6 5 4 3 3 4 4 4 5 7 7 8 8 7
13 16 18 17 16 11 14 13 13 15 12 9 8 10 13 15 16 16 15 15 15 14 14 14 13 12 11 10 9 8 7 5 5 4 3 4 5 5 5 4 4 4 4 6 8 8 8 9 10
16 16 18 17 14 16 14 15 12 17 15 12 11 13 15 16 16 15 14 13 13 14 13 13 13 12 12 11 11 10 9 7 5 5 5 5 5 6 6 5 5 6 5 6 8 8 8 8 11
17 17 14 11 12 16 17 16 12 17 18 16 14 14 15 16 16 15 14 13 13 13 12 12 11 10 10 9 9 9 8 7 7 6 6 6 5 6 7 7 7 7 6 7 8 8 10 9 10
15 12 9 11 13 15 16 16 3 19 22 20 18 16 15 15 15 14 14 13 12 12 11 10 10 9 8 8 7 7 6 7 7 7 8 8 7 6 6 8 6 7 7 7 8 8 8 9 9
13 15 14 14 14 13 12 5 10 13 17 19 17 16 15 15 15 14 12 11 11 11 10 9 9 8 8 7 7 6 6 7 8 8 9 9 7 7 7 7 7 8 8 9 7 7 8 7 7
17 16 17 17 18 16 5 11 11 13 16 17 17 16 15 15 14 13 11 10 10 9 8 8 8 7 8 8 8 7 9 8 9 8 8 8 7 9 9 9 8 8 8 7 7 6 7 7 7
19 16 10 14 15 16 16 13 15 19 18 17 16 16 15 14 12 11 10 9 7 7 7 7 7 8 8 9 9 9 10 9 9 9 9 8 8 8 9 9 8 8 8 8 7 6 6 7 7
15 16 15 14 14 16 16 5 13 20 18 16 15 15 15 14 12 10 8 8 8 7 8 8 9 9 9 9 9 8 9 9 10 8 9 8 8 8 9 8 8 8 8 7 7 8 9 9 9
17 17 16 13 15 15 13 4 13 18 17 16 15 15 14 12 11 10 9 8 8 8 8 8 8 9 9 8 8 8 8 9 9 9 9 8 8 8 8 8 8 9 9 8 9 11 11 12 12
Wind_Direction
256 260 253 259 248 241 249 251 52 60 42 16 28 47 74 58 52 88 117 100 104 108 114 115 117 114 110 105 102 102 117 127 122 116 109 104 101 100 101 98 93 87 85 85 85 85 83 80 75
266 254 247 250 250 256 250 96 76 81 94 265 358 51 68 68 66 98 116 113 113 119 117 113 123 118 114 112 110 108 114 124 123 118 113 109 106 103 101 99 93 87 84 86 89 89 87 84 79
265 267 258 243 247 270 359 74 85 99 140 192 89 65 54 54 69 91 114 126 116 106 105 115 120 118 120 121 120 116 115 119 121 120 118 118 115 111 108 105 104 99 91 87 91 93 92 90 88
256 235 238 246 257 165 53 58 98 111 112 61 79 81 75 61 80 111 133 141 126 119 115 116 119 123 130 135 133 127 124 122 122 124 125 124 121 115 110 108 107 107 104 102 105 105 100 93 87
237 251 242 253 257 76 92 101 103 98 94 80 79 89 86 85 102 125 144 145 136 120 120 123 125 133 139 142 140 135 133 129 129 131 134 131 125 122 118 115 114 113 113 113 111 108 105 103 98
242 249 261 263 120 95 113 109 100 108 118 121 105 104 102 114 130 148 145 153 133 125 122 126 133 137 138 139 134 128 127 129 135 139 143 143 141 135 126 122 121 119 117 116 118 118 119 118 117
255 278 280 284 104 136 118 114 99 110 99 77 100 106 114 131 148 150 144 144 133 130 131 138 141 140 137 134 131 129 130 135 141 147 157 163 157 141 131 127 127 126 126 128 130 132 134 139 148
257 283 292 300 131 146 129 136 118 77 75 68 69 104 124 143 166 148 142 137 136 130 135 141 144 144 145 136 133 133 136 143 148 159 171 170 155 143 136 131 130 133 135 137 141 145 151 162 172
257 267 281 325 90 121 148 156 128 139 162 111 89 118 139 162 164 151 137 137 129 131 147 150 147 147 136 134 137 142 144 149 153 169 180 170 168 149 144 124 134 140 144 151 163 171 176 186 204
243 263 309 10 26 124 155 147 149 192 155 95 95 104 117 162 169 155 133 128 144 146 147 142 143 144 140 137 147 157 163 160 186 174 178 186 172 148 129 138 149 156 163 174 188 194 198 208 216
256 271 349 344 341 332 237 196 202 250 94 68 121 122 126 206 204 158 140 146 169 163 159 150 140 131 137 143 163 160 146 153 175 138 142 154 152 150 143 158 161 173 181 198 192 205 222 212 186
260 285 323 315 1 300 292 247 226 259 127 146 135 142 164 200 203 152 146 157 166 166 144 122 109 78 52 76 113 150 135 141 114 111 234 168 176 201 150 171 176 178 197 212 205 219 191 258 267
243 271 253 266 272 268 295 298 262 258 224 156 136 155 168 190 178 139 144 154 158 142 120 112 99 91 77 52 42 63 58 68 94 107 53 358 200 111 84 49 11 259 164 179 256 297 44 323 287
262 259 259 246 264 269 273 281 279 252 266 245 181 190 172 175 160 143 152 160 151 135 122 117 113 113 115 101 87 87 92 75 88 68 53 354 23 51 46 140 343 324 350 41 5 322 311 278 275
266 278 280 264 257 251 252 258 269 260 248 261 242 206 171 164 169 164 162 135 131 122 117 119 119 130 139 133 147 128 130 121 93 89 68 358 9 40 349 313 212 292 346 358 278 278 284 279 274
256 258 261 255 248 240 236 255 271 283 235 231 241 210 167 155 169 162 135 101 86 76 64 81 125 128 107 95 79 77 74 84 100 122 119 69 22 6 337 314 301 348 333 309 278 263 279 289 306
253 245 248 252 245 229 216 239 270 328 320 303 273 222 156 120 80 69 64 73 80 83 74 332 118 139 132 123 105 92 80 60 80 103 110 112 13 320 317 312 332 335 311 306 312 347 349 331 330
245 243 240 241 249 220 221 239 260 301 311 298 280 223 98 79 60 61 76 82 96 113 143 199 189 127 127 131 125 115 114 135 105 83 81 76 33 4 357 331 9 350 341 353 359 339 327 321 308
258 271 285 285 242 205 218 247 255 63 0 317 344 77 93 83 75 68 77 90 108 128 155 181 148 119 116 106 142 122 126 118 62 67 74 63 43 31 8 355 1 348 353 352 328 322 319 311 303
247 261 273 279 272 225 238 244 184 112 82 47 67 79 83 94 84 72 70 74 78 88 98 82 70 59 41 47 28 42 47 31 56 52 54 43 34 17 352 20 347 358 346 323 326 336 318 302 296
253 264 268 268 266 211 219 237 186 137 123 109 91 84 79 75 77 70 65 66 68 67 64 64 59 49 38 32 25 37 29 24 34 37 39 16 354 343 347 346 346 349 332 324 336 316 307 313 311
248 250 257 263 270 244 208 235 183 147 137 124 106 95 88 79 75 73 70 69 72 73 70 65 60 53 44 40 34 36 39 31 26 16 40 357 335 340 341 335 336 338 332 322 315 329 331 312 301
255 254 261 252 254 267 246 234 168 153 145 129 110 99 95 92 90 87 85 84 83 80 75 68 62 56 49 43 40 37 31 19 7 356 2 351 337 338 328 336 358 359 337 327 325 317 312 306 300
252 252 258 262 253 247 250 253 187 166 149 138 127 118 112 109 106 102 99 92 85 81 78 73 67 62 54 47 41 34 21 359 343 339 337 342 334 323 331 353 8 345 330 323 317 313 307 304 303
234 244 236 234 239 247 244 248 143 144 149 148 141 136 130 125 118 111 103 93 84 75 70 67 62 55 48 44 36 22 6 335 334 349 346 336 321 320 346 352 336 329 325 318 313 313 309 306 306
221 236 241 244 243 240 240 241 94 114 131 135 140 140 136 125 114 108 103 97 89 78 64 57 50 40 30 24 18 359 357 350 344 347 334 318 318 328 334 332 330 321 313 310 308 303 298 300 303
236 222 238 256 267 276 232 122 151 136 134 141 146 144 132 117 117 114 106 96 87 79 66 50 42 29 21 10 5 356 4 352 339 331 321 324 330 324 333 327 315 310 306 300 297 294 295 293 290
232 247 247 241 254 264 265 195 167 164 160 157 155 144 127 123 120 112 108 99 89 82 78 56 41 24 18 9 5 357 353 345 338 332 333 332 331 330 321 319 320 316 309 303 300 303 298 296 290
218 234 252 264 260 254 259 258 138 164 160 159 155 141 137 135 130 125 113 98 83 60 49 39 29 20 15 9 5 358 351 347 342 339 338 336 329 325 322 322 320 317 312 317 325 325 321 316 308
237 239 231 240 255 263 270 124 148 152 149 155 153 141 133 130 127 118 100 82 65 48 39 32 22 17 11 7 4 1 351 347 342 337 333 330 326 324 324 324 324 329 339 355 359 347 337 323 313